Location: Angwan Shehu
(11.2514°N, 7.4613°E)
Time: 04:42:44
(UTC+00:00)

Cosmos 2227 Rocket - Pass Details

Date: 14 November 2019
Orbit: 838 x 846 km, 71.0° (Epoch: 07 December)

Event Time Altitude Azimuth Distance (km) Brightness Sun altitude
Rises 17:19:58 0° 14° (NNE) 3,390 5.0 -4.8°
Reaches altitude 10° 17:23:41 10° 39° (NE) 2,454 4.1 -5.6°
Maximum altitude 17:26:33 14° 70° (ENE) 2,171 3.7 -6.3°
Drops below altitude 10° 17:29:25 10° 101° (E) 2,452 4.1 -7.0°
Sets 17:33:05 0° 125° (SE) 3,384 5.0 -7.8°
